Weather History for Great Bend, KS

Change the Weather History Date:

Saturday, January 21, 2012

  Actual Average Record
Temperature  
Mean Temperature 22 °F -  
Max Temperature 37 °F 43 °F - (-1)
Min Temperature 8 °F 21 °F - (-1)
Degree Days  
Heating Degree Days 42    
Moisture  
Dew Point 8 °F    
Average Humidity 60    
Maximum Humidity 79    
Minimum Humidity 41    
Precipitation  
Precipitation 0.00 in - - ()
Sea Level Pressure  
Sea Level Pressure 29.99 in    
Wind  
Wind Speed 9 mph (SE)    
Max Wind Speed 28 mph    
Max Gust Speed 33 mph    
Visibility 10 miles    
Events      
Averages and records for this station are not official NWS values.
T = Trace of Precipitation, MM = Missing Value Source: NWS Daily Summary

Daily Weather History Graph

Daily Weather History Graph

Search for Another Location

Airport:

Trip Planner

Search our weather history database for the weather conditions in past years. The results will help you decide how hot, cold, wet, or windy it might be!

Date:

Astronomy

Jan. 21, 2012 Rise Set
Actual Time 7:48 AM CST 5:45 PM CST
Civil Twilight 7:20 AM CST 6:13 PM CST
Nautical Twilight 6:47 AM CST 6:45 PM CST
Astronomical Twilight 6:16 AM CST 7:17 PM CST
Moon 6:20 AM CST (1/21) 4:23 PM CST (1/21)
Length of Visible Light 10h 53m
Length of Day
9h 56m
Waning Crescent, 3% of the Moon is Illuminated
Jan 21
Waning Crescent
Jan 23
New
Jan 30
First Quarter
Feb 7
Full
Feb 14
Last Quarter

Hourly Weather History & Observations

Time (CST) Temp. Windchill Dew Point Humidity Pressure Visibility Wind Dir Wind Speed Gust Speed Precip Events Conditions
12:15 AM 17.6 °F 6.4 °F 6.8 °F 63% 30.16 in 10.0 mi NNE 9.2 mph - N/A   Clear
12:35 AM 17.6 °F 7.3 °F 6.8 °F 63% 30.16 in 10.0 mi NE 8.1 mph - N/A   Clear
12:55 AM 15.8 °F 6.1 °F 5.0 °F 62% 30.16 in 10.0 mi NNE 6.9 mph - N/A   Clear
1:15 AM 15.8 °F 6.1 °F 5.0 °F 62% 30.16 in 10.0 mi North 6.9 mph - N/A   Clear
1:35 AM 15.8 °F 4.2 °F 5.0 °F 62% 30.16 in 10.0 mi NNE 9.2 mph - N/A   Clear
1:55 AM 15.8 °F 4.2 °F 6.8 °F 68% 30.15 in 10.0 mi NNE 9.2 mph - N/A   Clear
2:15 AM 15.8 °F 4.2 °F 5.0 °F 62% 30.15 in 10.0 mi NE 9.2 mph - N/A   Clear
2:35 AM 14.0 °F 5.1 °F 3.2 °F 62% 30.14 in 10.0 mi NE 5.8 mph - N/A   Clear
2:55 AM 15.8 °F 8.6 °F 5.0 °F 62% 30.13 in 10.0 mi ENE 4.6 mph - N/A   Clear
3:15 AM 14.0 °F - 5.0 °F 67% 30.13 in 10.0 mi Calm Calm - N/A   Clear
3:35 AM 12.2 °F - 3.2 °F 67% 30.14 in 10.0 mi Calm Calm - N/A   Clear
3:55 AM 12.2 °F - 3.2 °F 67% 30.13 in 10.0 mi Calm Calm - N/A   Clear
4:15 AM 10.4 °F - 3.2 °F 73% 30.11 in 10.0 mi Calm Calm - N/A   Clear
4:35 AM 10.4 °F 2.2 °F 1.4 °F 67% 30.12 in 10.0 mi North 4.6 mph - N/A   Clear
4:55 AM 12.2 °F 0.7 °F 5.0 °F 73% 30.11 in 10.0 mi NE 8.1 mph - N/A   Clear
5:15 AM 12.2 °F - 3.2 °F 67% 30.13 in 10.0 mi Calm Calm - N/A   Clear
5:35 AM 10.4 °F - 1.4 °F 67% 30.12 in 10.0 mi Calm Calm - N/A   Clear
5:55 AM 10.4 °F - 1.4 °F 67% 30.12 in 10.0 mi Calm Calm - N/A   Clear
6:15 AM 10.4 °F - 3.2 °F 73% 30.11 in 10.0 mi Calm Calm - N/A   Clear
6:35 AM 8.6 °F - 3.2 °F 79% 30.10 in 10.0 mi Calm Calm - N/A   Clear
6:55 AM 8.6 °F - 3.2 °F 79% 30.10 in 10.0 mi North - - N/A   Clear
7:15 AM 8.6 °F - 3.2 °F 79% 30.09 in 10.0 mi North - - N/A   Clear
7:35 AM 10.4 °F - 3.2 °F 73% 30.09 in 10.0 mi Calm Calm - N/A   Clear
7:55 AM 10.4 °F - 5.0 °F 79% 30.08 in 10.0 mi Calm Calm - N/A   Clear
8:15 AM 10.4 °F - 3.2 °F 73% 30.09 in 10.0 mi Calm Calm - N/A   Clear
8:35 AM 12.2 °F - 6.8 °F 79% 30.09 in 10.0 mi Calm Calm - N/A   Clear
8:55 AM 12.2 °F 6.1 °F 5.0 °F 73% 30.09 in 10.0 mi East 3.5 mph - N/A   Clear
9:15 AM 14.0 °F 2.9 °F 5.0 °F 67% 30.08 in 10.0 mi SE 8.1 mph - N/A   Clear
9:35 AM 15.8 °F 6.1 °F 5.0 °F 62% 30.09 in 10.0 mi SSE 6.9 mph - N/A   Clear
9:55 AM 15.8 °F 5.1 °F 6.8 °F 68% 30.07 in 10.0 mi SSE 8.1 mph - N/A   Clear
10:15 AM 17.6 °F 6.4 °F 6.8 °F 63% 30.06 in 10.0 mi SSE 9.2 mph - N/A   Clear
10:35 AM 19.4 °F 8.6 °F 6.8 °F 58% 30.06 in 10.0 mi South 9.2 mph - N/A   Clear
10:55 AM 21.2 °F 10.1 °F 8.6 °F 58% 30.05 in 10.0 mi South 10.4 mph - N/A   Clear
11:15 AM 21.2 °F 10.9 °F 8.6 °F 58% 30.03 in 10.0 mi SSE 9.2 mph - N/A   Clear
11:35 AM 23.0 °F 10.6 °F 8.6 °F 54% 30.01 in 10.0 mi SSE 13.8 mph - N/A   Clear
11:55 AM 26.6 °F 14.7 °F 10.4 °F 51% 29.99 in 10.0 mi SSE 15.0 mph 18.4 mph N/A   Clear
12:15 PM 28.4 °F 15.8 °F 10.4 °F 47% 29.96 in 10.0 mi South 18.4 mph 21.9 mph N/A   Clear
12:35 PM 28.4 °F 16.6 °F 12.2 °F 51% 29.95 in 10.0 mi South 16.1 mph - N/A   Clear
12:55 PM 30.2 °F 17.8 °F 12.2 °F 47% 29.92 in 10.0 mi South 19.6 mph 23.0 mph N/A   Clear
1:15 PM 32.0 °F 20.1 °F 12.2 °F 44% 29.90 in 10.0 mi SSE 19.6 mph - N/A   Clear
1:35 PM 33.8 °F 23.2 °F 15.8 °F 48% 29.88 in 10.0 mi SSE 17.3 mph - N/A   Clear
1:55 PM 35.6 °F 25.2 °F 15.8 °F 44% 29.85 in 10.0 mi SSE 18.4 mph - N/A   Clear
2:15 PM 37.4 °F 26.4 °F 15.8 °F 41% 29.83 in 10.0 mi SSE 23.0 mph 26.5 mph N/A   Clear
2:35 PM 37.4 °F 26.6 °F 15.8 °F 41% 29.82 in 10.0 mi SSE 21.9 mph 27.6 mph N/A   Clear
2:55 PM 37.4 °F 26.6 °F 15.8 °F 41% 29.79 in 10.0 mi SSE 21.9 mph - N/A   Clear
3:15 PM 37.4 °F 26.4 °F 15.8 °F 41% 29.78 in 10.0 mi SSE 23.0 mph 26.5 mph N/A   Clear
3:35 PM 37.4 °F 26.6 °F 15.8 °F 41% 29.75 in 10.0 mi SSE 21.9 mph 28.8 mph N/A   Clear
3:55 PM 37.4 °F 27.2 °F 17.6 °F 45% 29.74 in 10.0 mi SSE 19.6 mph 23.0 mph N/A   Clear
4:15 PM 35.6 °F 24.0 °F 15.8 °F 44% 29.72 in 10.0 mi SSE 23.0 mph 29.9 mph N/A   Clear
4:35 PM 35.6 °F 24.2 °F 17.6 °F 48% 29.71 in 10.0 mi SSE 21.9 mph 28.8 mph N/A   Clear
4:55 PM 33.8 °F 21.0 °F 15.8 °F 48% 29.68 in 10.0 mi SSE 25.3 mph - N/A   Clear
5:15 PM 33.8 °F 21.6 °F 15.8 °F 48% 29.66 in 10.0 mi SSE 23.0 mph 32.2 mph N/A   Clear
5:35 PM 33.8 °F 20.5 °F 14.0 °F 44% 29.64 in 10.0 mi SE 27.6 mph 32.2 mph N/A   Clear
5:55 PM 32.0 °F 19.2 °F 14.0 °F 48% 29.64 in 10.0 mi SSE 23.0 mph 33.4 mph N/A   Clear
6:15 PM 30.2 °F 17.1 °F 15.8 °F 55% 29.64 in 10.0 mi SSE 21.9 mph 28.8 mph N/A   Clear
6:35 PM 30.2 °F 16.8 °F 14.0 °F 51% 29.64 in 10.0 mi SSE 23.0 mph 27.6 mph N/A   Clear
6:55 PM 30.2 °F 17.8 °F 14.0 °F 51% 29.64 in 10.0 mi SSE 19.6 mph - N/A   Clear
7:35 PM 28.4 °F 13.5 °F 14.0 °F 55% 29.62 in 10.0 mi SSE 26.5 mph 31.1 mph N/A   Clear
7:55 PM 28.4 °F 14.4 °F 15.8 °F 59% 29.62 in 10.0 mi SSE 23.0 mph 28.8 mph N/A   Clear
8:15 PM 28.4 °F 15.4 °F 15.8 °F 59% 29.62 in 10.0 mi SSE 19.6 mph 26.5 mph N/A   Clear
8:35 PM 28.4 °F 14.4 °F 15.8 °F 59% 29.60 in 10.0 mi SSE 23.0 mph 27.6 mph N/A   Clear
9:15 PM 30.2 °F 16.2 °F 15.8 °F 55% 29.57 in 10.0 mi SSE 25.3 mph 33.4 mph N/A   Clear
9:35 PM 30.2 °F 15.9 °F 15.8 °F 55% 29.56 in 10.0 mi SSE 26.5 mph 34.5 mph N/A   Clear
9:55 PM 30.2 °F 16.2 °F 15.8 °F 55% 29.55 in 10.0 mi SSE 25.3 mph 33.4 mph N/A   Clear
10:15 PM 30.2 °F 15.7 °F 17.6 °F 60% 29.53 in 10.0 mi SSE 27.6 mph 34.5 mph N/A   Clear
10:35 PM 30.2 °F 17.4 °F 17.6 °F 60% 29.52 in 10.0 mi SSE 20.7 mph 32.2 mph N/A   Clear
10:55 PM 30.2 °F 17.1 °F 17.6 °F 60% 29.52 in 10.0 mi SSE 21.9 mph 32.2 mph N/A   Clear
11:15 PM 32.0 °F 18.4 °F 17.6 °F 55% 29.50 in 10.0 mi South 26.5 mph 35.7 mph N/A   Clear
11:35 PM 33.8 °F 20.1 °F 19.4 °F 56% 29.49 in 10.0 mi South 29.9 mph 36.8 mph N/A   Clear
11:55 PM 33.8 °F 21.3 °F 19.4 °F 56% 29.48 in 10.0 mi South 24.2 mph 35.7 mph N/A   Clear